Temp
12 12 12 12 13 13 13 13 13 13 14 14 14 14 15 15 15 16 16 16 16 15 15 15 15 15 14 15 15 16 16 15 15 15 15 14 14 14 14 15 14 15 14 14 14
11 12 12 12 13 13 13 13 13 13 14 14 14 14 15 15 15 16 16 16 16 16 15 15 15 15 14 15 15 16 15 16 15 15 14 14 14 14 15 15 15 15 15 14 14
11 12 12 12 13 13 13 13 13 14 14 14 14 14 14 15 15 15 16 16 16 16 16 16 15 15 14 15 15 15 15 15 15 15 15 15 14 14 15 16 15 15 15 14 13
11 12 12 12 12 13 13 13 13 14 14 14 14 14 15 15 15 15 15 16 16 15 16 16 16 15 14 15 15 15 15 15 16 16 16 16 15 15 16 15 15 15 14 13 13
11 11 12 12 12 13 13 13 13 14 14 14 14 14 15 15 15 15 15 15 15 15 15 15 15 15 15 15 15 15 15 15 15 16 16 16 16 16 15 15 15 14 14 13 13
11 11 12 12 12 12 13 13 13 14 14 14 14 14 15 14 15 15 15 15 15 15 15 15 14 15 15 14 15 15 16 16 16 16 16 16 16 16 15 15 15 14 14 14 14
11 11 11 12 12 12 13 13 13 14 14 14 14 14 15 14 15 14 15 15 15 15 15 14 14 15 15 15 15 15 16 16 16 16 16 16 16 16 15 15 14 14 14 14 13
10 11 11 12 12 12 13 13 13 14 14 14 14 15 15 15 15 14 15 15 15 15 14 14 14 15 15 15 15 15 15 16 16 16 16 16 15 16 16 16 15 15 14 13 13
10 10 11 11 12 12 12 13 13 14 14 14 14 15 15 15 15 14 14 15 15 14 14 14 14 15 15 15 15 15 15 16 16 16 16 15 16 16 16 16 16 14 13 13 14
10 10 11 11 11 12 12 13 13 13 14 14 14 14 15 15 15 14 14 14 14 14 14 14 14 15 15 15 15 15 15 15 15 16 16 15 15 16 16 15 14 14 13 13 14
10 10 10 10 11 11 12 12 13 13 14 14 15 15 15 15 15 14 14 14 14 14 14 14 14 16 14 14 14 14 14 15 16 16 16 16 15 15 15 16 14 13 14 13 14
9 10 10 10 11 10 11 12 12 13 14 15 15 15 15 15 15 15 15 14 14 14 14 14 16 14 14 14 14 14 14 15 16 16 16 16 16 16 16 16 16 14 13 14 14
9 9 10 10 10 10 10 11 12 12 13 15 14 15 15 15 15 15 15 14 14 14 14 14 14 15 14 14 14 14 14 16 16 16 16 16 16 16 16 16 14 13 13 14 14
9 9 9 9 9 9 10 11 11 11 12 15 15 15 15 15 15 14 14 14 13 14 13 13 15 15 14 15 14 15 16 16 16 16 16 16 15 16 16 16 15 13 13 14 13
9 9 9 9 9 9 10 10 10 10 8 14 14 14 15 14 14 15 14 14 13 13 13 14 14 13 14 15 14 14 15 15 16 16 16 16 15 15 15 15 15 15 13 14 13
8 9 9 9 9 9 9 9 9 10 10 13 13 14 15 14 14 14 14 13 13 12 12 12 13 13 14 15 14 14 15 15 16 16 14 16 15 16 15 15 15 15 14 14 13
8 9 9 9 9 9 9 8 8 9 12 12 13 13 14 15 14 14 14 13 12 12 12 13 14 14 14 14 15 15 15 15 13 11 11 15 15 16 15 15 15 15 14 13 12
8 8 9 8 9 9 9 8 8 10 11 11 12 13 13 14 14 14 13 13 13 13 12 13 14 15 15 14 14 15 15 15 11 9 12 15 15 15 15 14 14 14 14 13 12
8 8 8 8 9 9 8 7 9 10 9 11 12 12 13 13 13 13 13 13 14 14 12 12 13 15 14 14 14 15 15 15 16 12 12 14 15 14 14 14 14 15 13 13 9
7 7 8 8 8 8 8 8 9 9 10 10 11 11 11 12 12 13 13 14 14 14 13 13 13 14 15 14 15 15 15 15 15 11 11 12 14 16 14 14 14 14 13 12 10
6 6 7 8 7 7 7 7 9 9 9 9 10 11 11 10 11 12 13 13 13 13 13 13 13 14 14 15 15 15 15 15 15 15 9 8 14 16 15 14 14 13 14 13 12
5 5 5 6 6 6 7 7 8 8 8 8 9 10 10 10 10 11 13 13 13 12 14 14 13 13 14 14 15 15 15 15 15 14 14 13 15 15 16 15 14 13 13 13 12
4 4 4 4 4 5 6 6 6 7 8 8 8 9 9 10 10 11 12 12 13 12 12 13 13 12 14 14 14 15 15 15 16 16 15 12 15 15 15 14 14 13 13 12 11
2 2 3 3 3 3 3 5 5 6 7 7 8 9 9 10 9 10 11 12 13 13 13 13 13 13 13 15 15 15 15 15 15 15 15 15 16 16 15 14 14 14 13 12 11
2 2 3 2 2 2 3 3 4 4 5 6 6 7 8 9 10 10 10 11 12 13 12 12 13 13 14 14 14 14 15 15 15 15 15 16 16 16 16 15 14 13 13 12 10
2 2 2 1 2 2 2 2 3 4 4 5 5 7 7 8 9 9 10 10 11 12 12 12 12 13 13 13 13 13 14 15 15 15 15 15 15 16 16 15 14 13 13 12 12
1 1 1 1 1 2 2 3 3 3 4 5 5 7 7 7 9 9 10 10 10 10 11 11 11 12 12 13 13 13 14 15 14 14 14 15 15 15 16 16 14 13 12 12 12
Height
3162 3162 3163 3162 3163 3163 3164 3164 3163 3163 3163 3164 3164 3164 3165 3165 3164 3164 3164 3166 3165 3165 3165 3166 3168 3170 3173 3175 3176 3176 3176 3176 3178 3179 3179 3178 3177 3177 3177 3175 3174 3174 3174 3173 3172
3160 3161 3161 3162 3162 3163 3163 3163 3163 3163 3163 3163 3164 3164 3164 3164 3164 3164 3165 3164 3165 3165 3166 3167 3168 3171 3174 3175 3176 3176 3175 3175 3177 3176 3176 3177 3177 3177 3177 3175 3174 3175 3175 3174 3172
3159 3160 3160 3161 3161 3161 3161 3162 3162 3162 3162 3162 3163 3163 3163 3164 3164 3164 3164 3164 3165 3165 3166 3167 3168 3170 3173 3175 3176 3176 3176 3175 3174 3174 3174 3175 3175 3175 3175 3175 3178 3177 3175 3175 3176
3157 3158 3158 3159 3159 3160 3160 3160 3161 3160 3161 3161 3162 3163 3163 3163 3166 3164 3164 3164 3165 3166 3166 3167 3170 3172 3174 3175 3176 3176 3176 3176 3173 3172 3172 3172 3172 3174 3175 3177 3175 3176 3177 3176 3176
3155 3156 3156 3156 3157 3158 3158 3158 3159 3159 3159 3160 3161 3161 3162 3163 3164 3164 3164 3164 3165 3166 3167 3168 3171 3173 3175 3175 3175 3175 3175 3175 3175 3173 3173 3173 3173 3173 3174 3175 3175 3175 3173 3176 3176
3152 3153 3153 3154 3154 3155 3156 3156 3156 3157 3157 3158 3159 3160 3161 3163 3162 3163 3163 3164 3165 3166 3167 3168 3171 3172 3173 3173 3175 3173 3173 3173 3174 3173 3173 3173 3173 3174 3173 3174 3172 3173 3171 3171 3170
3150 3150 3151 3151 3152 3153 3153 3153 3154 3155 3155 3156 3157 3158 3159 3161 3161 3161 3162 3163 3164 3165 3167 3168 3170 3171 3170 3173 3173 3173 3172 3171 3173 3172 3172 3171 3172 3172 3173 3171 3172 3171 3173 3174 3175
3147 3147 3148 3148 3149 3150 3150 3151 3151 3152 3153 3154 3155 3156 3157 3158 3160 3160 3160 3161 3163 3164 3165 3166 3167 3169 3170 3172 3172 3172 3172 3171 3172 3171 3169 3168 3169 3170 3169 3169 3170 3170 3173 3174 3174
3144 3144 3145 3145 3146 3147 3147 3148 3148 3149 3150 3151 3153 3154 3155 3156 3157 3157 3159 3159 3161 3162 3163 3164 3166 3168 3168 3170 3171 3171 3169 3169 3168 3167 3167 3166 3166 3167 3168 3167 3166 3168 3169 3169 3170
3140 3141 3141 3142 3143 3144 3143 3144 3145 3146 3147 3148 3149 3153 3153 3153 3154 3156 3156 3158 3159 3160 3163 3164 3165 3165 3166 3167 3168 3168 3167 3167 3167 3168 3166 3166 3165 3166 3166 3166 3166 3166 3166 3168 3165
3136 3138 3139 3139 3140 3140 3141 3142 3144 3143 3143 3145 3146 3147 3149 3150 3152 3154 3154 3155 3156 3158 3160 3161 3163 3162 3164 3165 3166 3167 3166 3165 3166 3167 3166 3167 3162 3163 3164 3163 3163 3163 3166 3166 3164
3133 3134 3135 3136 3137 3137 3138 3138 3138 3140 3141 3141 3142 3144 3146 3147 3149 3150 3151 3153 3154 3155 3157 3159 3159 3161 3162 3163 3164 3166 3166 3164 3163 3164 3164 3165 3162 3161 3161 3161 3160 3162 3164 3164 3164
3129 3130 3133 3134 3134 3135 3135 3136 3137 3138 3137 3139 3138 3139 3143 3144 3146 3149 3150 3150 3151 3152 3154 3156 3159 3158 3160 3161 3163 3163 3164 3164 3165 3163 3162 3160 3159 3159 3160 3160 3160 3162 3161 3162 3163
3125 3127 3130 3129 3133 3132 3133 3135 3136 3138 3136 3135 3134 3135 3138 3139 3141 3145 3146 3149 3148 3150 3153 3153 3156 3157 3159 3160 3162 3161 3161 3162 3162 3163 3161 3159 3159 3158 3155 3158 3158 3158 3158 3162 3161
3122 3124 3124 3125 3128 3130 3131 3134 3136 3137 3138 3134 3131 3131 3133 3136 3140 3141 3143 3145 3146 3149 3151 3152 3152 3153 3154 3157 3158 3158 3159 3159 3159 3159 3159 3159 3158 3155 3155 3155 3156 3157 3158 3159 3160
3117 3118 3119 3123 3125 3126 3128 3133 3135 3139 3132 3130 3130 3130 3131 3132 3137 3139 3140 3143 3146 3147 3146 3146 3150 3150 3151 3153 3155 3155 3155 3155 3155 3156 3156 3157 3156 3155 3155 3156 3155 3155 3157 3158 3159
3111 3112 3116 3118 3121 3122 3126 3130 3135 3133 3130 3129 3128 3128 3130 3132 3134 3137 3138 3139 3141 3143 3142 3144 3143 3145 3148 3150 3152 3153 3154 3153 3155 3157 3156 3155 3154 3154 3155 3155 3154 3155 3158 3159 3160
3106 3109 3111 3113 3115 3119 3122 3128 3128 3125 3126 3126 3126 3127 3128 3130 3132 3134 3136 3138 3139 3140 3141 3141 3139 3140 3143 3146 3150 3150 3151 3151 3157 3159 3154 3153 3152 3152 3154 3152 3152 3155 3156 3157 3160
3101 3104 3107 3108 3111 3115 3119 3121 3120 3123 3123 3124 3126 3125 3125 3127 3131 3131 3133 3134 3136 3137 3141 3138 3136 3138 3140 3143 3146 3146 3146 3148 3149 3152 3153 3152 3151 3153 3151 3151 3151 3151 3152 3156 3161
3096 3098 3101 3103 3107 3111 3114 3114 3117 3120 3121 3123 3123 3124 3123 3124 3127 3128 3130 3131 3132 3135 3137 3136 3135 3135 3138 3140 3142 3143 3142 3144 3145 3152 3153 3148 3148 3149 3148 3150 3150 3150 3149 3153 3149
3092 3093 3096 3099 3103 3106 3107 3110 3114 3116 3118 3121 3122 3122 3123 3123 3124 3125 3127 3131 3130 3129 3130 3132 3136 3132 3134 3136 3138 3140 3138 3140 3143 3144 3144 3149 3145 3145 3144 3145 3145 3147 3148 3146 3139
3088 3090 3092 3094 3099 3099 3101 3106 3109 3111 3114 3116 3118 3120 3121 3121 3122 3124 3124 3126 3127 3126 3124 3127 3131 3129 3130 3133 3135 3136 3136 3136 3139 3141 3140 3140 3140 3140 3140 3142 3143 3145 3145 3143 3142
3085 3087 3090 3092 3095 3098 3100 3103 3105 3107 3110 3112 3114 3117 3119 3119 3121 3121 3122 3123 3125 3124 3122 3123 3125 3128 3128 3131 3131 3133 3133 3133 3134 3136 3136 3138 3135 3135 3136 3137 3139 3139 3140 3139 3137
3085 3086 3088 3090 3092 3094 3096 3098 3101 3103 3105 3107 3109 3112 3115 3115 3117 3118 3119 3120 3120 3121 3120 3121 3121 3123 3123 3125 3128 3130 3131 3131 3132 3133 3133 3131 3132 3131 3132 3132 3134 3138 3139 3137 3136
3083 3084 3084 3087 3090 3091 3093 3096 3097 3097 3100 3103 3105 3107 3108 3109 3111 3112 3115 3115 3117 3117 3119 3120 3119 3119 3120 3121 3124 3126 3128 3128 3129 3130 3128 3128 3129 3128 3129 3129 3133 3136 3138 3136 3137
3080 3082 3084 3085 3087 3089 3090 3091 3092 3094 3096 3098 3100 3101 3104 3105 3107 3108 3111 3112 3114 3116 3117 3118 3118 3117 3117 3119 3122 3123 3123 3124 3126 3127 3125 3125 3126 3126 3124 3127 3131 3135 3136 3134 3135
3077 3078 3081 3083 3085 3087 3087 3089 3090 3091 3094 3095 3096 3097 3100 3101 3101 3104 3105 3109 3110 3111 3113 3115 3115 3115 3115 3117 3119 3121 3121 3121 3123 3124 3124 3122 3124 3124 3123 3124 3129 3132 3132 3133 3134
Wind_Speed
8 7 6 4 4 4 4 3 2 2 2 2 1 1 0 2 3 3 4 5 6 4 7 11 16 17 14 10 10 9 11 9 9 7 10 8 2 8 6 3 4 2 2 7 11
9 8 8 7 6 7 6 5 5 4 3 3 2 2 2 1 2 1 1 4 5 5 6 11 15 19 16 12 8 10 4 9 11 15 17 10 8 10 12 9 4 4 3 3 8
11 11 10 10 9 9 8 8 7 6 6 5 4 3 2 2 3 3 2 2 3 3 3 10 18 22 19 13 10 6 2 8 10 20 23 23 18 17 14 8 7 6 5 4 8
13 13 12 11 10 11 11 10 9 8 8 7 6 4 3 2 3 3 3 5 3 3 3 6 12 21 19 14 9 8 4 10 14 12 15 11 15 14 10 4 5 1 3 3 7
14 14 13 12 12 12 12 12 11 10 10 9 8 6 6 4 6 5 3 4 5 4 3 6 10 20 20 16 14 10 10 9 10 11 12 9 4 6 9 8 8 7 11 7 3
15 15 14 13 13 13 13 13 13 12 12 11 10 9 8 7 7 8 7 4 5 5 4 6 12 19 21 17 16 15 13 9 8 11 12 9 8 5 11 11 12 9 12 4 9
17 16 16 14 14 14 15 14 15 14 13 13 12 11 9 10 7 8 9 7 6 6 6 11 14 17 24 20 20 15 15 14 12 12 15 15 8 7 10 14 13 10 9 2 5
18 18 17 16 16 16 16 16 16 15 15 14 13 12 9 10 8 9 9 8 7 6 9 14 15 14 19 18 14 11 12 11 2 11 16 18 6 8 10 15 13 13 14 7 10
18 18 17 16 16 16 16 17 16 16 16 15 14 13 12 9 9 13 10 10 8 7 11 13 13 12 11 12 11 13 11 11 11 18 16 2 6 8 3 13 16 13 15 12 10
18 18 17 16 15 16 16 16 16 16 17 16 15 12 13 11 13 12 14 13 11 11 12 12 13 11 9 9 3 10 7 8 11 15 20 17 5 5 7 15 19 15 15 13 11
18 17 16 15 15 14 14 14 16 18 19 17 13 12 13 13 13 11 13 16 17 15 16 13 11 11 2 4 11 9 9 13 5 15 14 14 12 11 12 17 21 25 14 17 13
17 16 16 16 15 13 14 15 16 18 16 17 17 17 17 15 15 14 16 14 18 17 14 13 14 6 7 7 7 8 11 9 13 14 15 16 13 12 8 11 17 20 11 17 11
18 15 17 17 14 12 15 15 14 14 18 14 18 18 16 20 18 13 13 12 13 15 14 13 6 14 10 8 6 8 14 12 15 16 18 15 9 7 5 7 15 18 19 17 14
19 19 20 15 15 15 16 14 11 11 12 13 12 15 21 21 22 15 13 10 14 13 12 14 15 11 8 7 5 11 5 11 15 15 11 11 4 6 12 12 10 17 21 12 5
21 20 17 14 16 17 18 11 8 6 4 3 7 10 15 27 11 5 16 16 13 9 12 9 7 8 12 11 11 15 12 14 12 12 10 10 6 6 13 9 6 8 15 8 4
19 18 16 16 18 21 18 10 8 4 7 3 5 7 12 23 25 12 12 16 15 15 17 18 17 19 17 16 12 12 18 17 15 8 5 9 6 9 9 7 8 9 8 8 3
18 18 16 17 18 19 17 14 8 8 5 2 7 10 10 8 22 21 12 18 20 16 22 19 22 22 20 17 13 13 12 5 3 2 6 7 6 5 7 7 6 10 5 7 5
19 18 17 18 19 17 17 18 11 8 14 6 4 11 17 15 15 21 24 18 18 23 18 10 13 9 20 19 12 13 14 10 6 4 4 7 4 6 8 13 8 7 12 9 7
19 18 16 22 21 19 20 23 14 13 6 15 6 4 9 20 17 10 17 22 21 18 21 7 10 8 11 11 6 6 15 15 12 1 1 6 9 4 8 16 10 14 18 5 12
14 15 17 24 22 22 23 26 20 15 12 5 3 4 3 3 11 16 16 15 24 22 22 23 21 12 13 13 14 11 17 8 8 4 3 4 4 9 13 10 11 17 18 10 8
11 12 15 19 22 24 28 27 25 18 17 16 9 8 2 2 0 4 9 16 14 19 28 31 30 19 15 12 12 11 12 14 10 5 7 3 6 6 8 14 16 17 21 15 10
8 13 13 18 23 29 31 28 27 17 21 23 16 16 8 5 9 5 12 11 2 9 13 27 14 25 21 15 14 17 16 14 17 7 6 5 11 11 13 15 19 17 12 10 2
9 16 15 17 13 20 23 24 24 26 20 19 16 18 13 7 3 6 13 10 6 3 7 11 24 31 29 26 16 9 10 15 18 24 19 6 13 13 18 21 18 16 13 10 8
14 15 19 20 14 12 12 16 18 19 19 19 22 22 19 13 9 8 12 11 12 5 3 6 15 27 29 23 6 11 7 5 3 5 16 22 21 20 18 25 21 16 11 9 12
15 16 23 24 19 15 14 9 10 14 18 11 11 14 15 18 12 14 17 17 15 11 6 5 9 7 18 26 23 23 22 17 11 12 14 14 15 17 17 23 20 16 10 7 15
11 17 23 17 24 20 19 16 17 14 13 15 18 20 12 13 17 13 15 12 9 14 10 6 5 4 2 6 8 8 12 20 14 9 10 12 17 19 13 12 20 16 9 10 19
10 14 22 23 18 19 21 22 20 18 13 13 14 20 14 11 19 15 16 17 11 8 10 6 5 6 5 7 9 12 10 13 11 5 11 14 15 15 15 17 16 12 10 18 17
Wind_Direction
227 231 237 243 256 259 259 264 273 294 312 288 277 322 64 87 95 88 73 67 58 77 136 157 164 158 147 160 187 168 108 72 65 46 340 325 226 243 318 295 316 340 355 39 48
237 236 244 247 247 257 263 268 266 272 279 281 276 266 258 229 203 175 115 77 58 69 130 144 163 162 167 189 201 152 92 16 354 332 329 339 303 264 285 287 266 329 308 78 67
234 237 237 240 245 254 260 263 268 266 269 275 269 262 251 239 230 207 185 137 82 69 110 147 169 170 167 192 188 163 55 318 348 330 316 309 303 282 271 302 287 316 4 40 74
235 237 239 244 247 250 256 258 257 262 265 265 263 251 240 232 213 177 184 166 153 114 108 126 172 176 175 186 205 217 248 323 324 324 328 318 299 266 282 274 266 204 137 75 86
236 238 240 244 247 249 254 258 259 260 262 262 261 249 239 227 217 209 201 173 176 178 135 131 186 183 176 186 212 225 260 272 305 319 325 331 345 249 250 240 225 188 174 158 143
238 240 242 245 250 251 252 255 256 257 260 260 258 251 241 240 222 223 216 205 199 199 155 142 167 181 185 194 207 225 234 248 288 293 295 323 324 294 225 209 220 210 187 124 331
237 240 242 243 247 251 252 252 254 255 256 257 258 258 249 239 224 218 224 215 216 202 175 169 179 178 190 197 211 227 241 247 262 273 284 287 301 244 256 240 230 231 175 28 326
239 238 241 241 244 247 249 251 252 254 255 257 257 259 254 244 237 235 230 221 214 216 196 185 200 197 190 195 213 223 242 261 25 292 313 263 209 258 271 270 260 236 190 191 339
243 239 239 240 244 247 249 250 254 255 256 256 256 257 254 246 232 230 228 230 220 211 204 210 221 219 222 214 230 230 246 253 329 332 0 354 219 258 261 298 258 242 222 251 299
245 242 238 239 240 243 247 253 256 256 253 253 252 252 243 233 225 221 224 229 220 216 213 219 229 229 228 224 221 200 242 282 313 331 331 331 261 207 260 286 258 245 262 258 290
243 241 237 237 235 238 245 249 251 251 246 245 245 239 242 239 230 203 218 225 226 223 219 229 234 238 210 230 238 241 265 297 313 331 332 324 299 298 291 310 253 242 266 256 283
241 237 238 235 230 230 238 244 253 257 254 253 245 242 241 241 237 219 215 225 227 232 227 237 243 244 211 210 214 246 283 298 313 336 336 326 292 305 327 313 282 263 250 278 306
246 241 236 233 228 227 236 245 256 278 284 248 256 248 234 242 242 249 230 225 235 240 239 241 175 180 177 186 239 253 274 286 300 321 330 315 290 297 337 340 249 232 242 269 301
252 245 238 234 234 234 240 249 268 286 291 276 259 249 229 234 243 233 237 221 229 243 244 254 223 226 220 215 278 292 290 294 298 301 316 321 276 292 304 323 259 228 241 277 308
245 240 241 233 239 236 243 246 261 273 326 290 230 223 214 219 225 236 242 234 238 244 238 233 174 192 221 203 296 284 300 290 297 292 289 287 280 322 310 284 287 236 230 278 269
249 244 244 233 233 235 235 226 218 215 253 217 222 223 221 212 224 240 207 225 243 256 258 261 246 246 233 217 253 273 295 281 278 284 267 297 314 341 336 298 264 232 217 225 202
252 249 236 233 229 233 228 214 212 212 236 171 201 226 204 195 213 214 215 213 225 226 250 261 263 255 244 240 222 271 278 270 317 324 226 306 302 299 305 250 260 224 248 184 162
248 243 234 230 226 224 219 205 213 235 222 199 226 231 222 217 232 227 232 235 238 243 252 271 287 248 218 236 268 280 267 231 193 188 238 304 264 292 298 231 247 236 214 219 192
244 238 226 223 220 214 211 203 220 230 218 239 258 199 207 226 235 251 233 235 233 238 223 233 259 267 222 217 228 267 291 269 245 227 254 261 277 290 229 231 250 211 198 230 241
250 237 219 221 216 212 212 217 216 215 222 222 211 193 115 101 214 229 221 242 246 251 249 252 269 296 228 244 245 293 285 229 217 130 226 230 230 285 224 208 196 210 207 303 103
241 227 216 216 210 211 216 219 222 224 231 241 244 224 268 344 303 190 205 230 254 269 253 249 253 275 276 272 239 280 295 226 243 206 165 191 246 281 235 226 237 227 232 291 71
222 200 199 194 202 212 220 221 228 223 237 245 245 242 270 272 302 270 195 167 8 354 259 243 244 258 275 271 257 276 289 259 238 239 218 238 263 251 257 230 236 228 253 287 230
204 198 178 185 197 222 233 235 242 243 236 244 238 236 233 224 276 228 227 211 225 38 21 253 234 246 267 270 274 253 279 262 254 251 258 237 273 276 238 235 231 237 261 279 247
185 185 177 176 187 192 212 224 229 237 234 229 235 223 229 241 222 241 235 240 227 240 346 279 237 235 234 249 233 208 225 347 18 303 279 261 274 278 251 233 238 245 252 296 253
193 191 193 201 210 225 235 238 236 240 229 210 232 226 238 252 245 254 262 263 239 241 253 283 263 222 239 254 256 258 257 268 291 313 300 294 271 284 292 254 241 232 258 247 209
221 208 198 209 214 229 233 233 242 232 235 228 237 227 231 250 238 258 271 269 263 234 241 287 251 238 220 234 251 251 230 251 281 309 302 285 302 283 291 237 224 224 228 159 150
237 222 212 212 201 215 228 229 235 242 239 241 255 241 234 259 238 225 238 256 263 267 278 279 262 246 241 262 275 269 250 254 263 293 318 312 290 315 293 267 206 216 200 166 164